Showing default

FORESAIL-1 PRIME, 66778

Orbit data source: Space-Track

FORESAIL-1 PRIME, 66778 is a payload satellite owned by Aalto univ. (FI) in SSO that was launched on Fri, 28 Nov 2025 UTC via an FALCON 9 launch vehicle from the Air Force Western Test Range (AFWTR). Payload-class satellites include a variety of spacecraft equipped with specific instruments for various scientific and technological missions. These include communications satellites like Starlink; space stations such as the ISS; scientific satellites like the Hubble; Earth observation satellites from companies like Planet Labs, Umbra, and HawkEye 360; GPS; miniature CubeSats for education and research; and military/defense satellites.

Loading next visibility...
Identifier
66778, 2025-276DS
Orbit
SSO
Country
Flag of FIFI / FIN
Related business
Manufacturer
Aalto univ.
Mission
Operational Amateur Technology
Bus & Motor
CUBESAT 3U, Unknown motor
Mass
4 kg wet, 4 kg dry
Launch date (UTC)
2025-11-28 (6 months ago)
Launch vehicle
FALCON 9
Launch site
Air Force Western Test Range (AFWTR)
Object type
Payload
Rocket body
Debris
Shape & HBR
Box, 0.1 m
Radar Cross Section
0.035 m², Medium (>0.1 m² and < 1m²)

Expand to show TLE details & history
Last TLE update: 1 week ago

TLE from 1 week ago
0 FORESAIL-1 PRIME
1 66778U 25276DS  26154.88437377  .00005984  00000-0  29269-3 0  9998
2 66778  97.4202 228.3996 0003556 131.6607 228.4932 15.18574549 28382
Epoch: 2026-06-03T21:13Z
TLE epoch observation values (Epoch: 2026-06-03T21:13:29.893Z)
Latitude
-0.00006°
Longitude
17.68847°
Altitude
514.86 km
Speed
7.605 km/s
True Right ascension
15h 13m 35s
True Declination
0° 00' 00"
Sunlit
Object was in full shadow at epoch
Visualization orbit readout
Latitude
Unknown
Longitude
Unknown
Altitude
Unknown
Speed
Unknown
Apparent Right ascension
Unknown
Apparent Declination
Unknown
Sunlit
N/A
Visualization observer readout
Local Sidereal Time
20:54:46
Azimuth
Unknown
Elevation
Unknown
Doppler factor
Unknown
Orbital elements
Apogee altitude
509.565 km
Perigee altitude
504.668 km
Semi-major axis
6,885.253 km
Eccentricity
0.00036
Inclination
97.4202°
RAAN
228.3996°
Arg. of periapsis
131.6607°
True anomaly
228.46269°
Mean anomaly
228.4932°
Eccentric anomaly
228.47795°
Mean motion
3.79895 °/min
Orbital period
94.76 mins
BSTAR
0.00029269
Loading maneuver chart data...
Computing Atmospheric mass density...
Loading historical data...
Loading historical data...
Loading historical data...
Loading historical data...
Loading historical data...
Loading historical data...
Loading historical data...

Documentation

Showing up to 5 results
|